Location: Forest Hills
(36.0651°N, 86.8403°W)
Time: 00:56:32
(UTC+00:00)

Tiangong - Visible Passes

Search period start: 22 January 2026 00:00
Search period end: 01 February 2026 00:00
Orbit: 378 x 392 km, 41.5° (Epoch: 21 January)

Date Brightness Start Highest point End Pass type
(mag) Time Alt. Az. Time Alt. Az. Time Alt. Az.
22 Jan 0.9 10:40:03 15° ENE 10:40:03 15° ENE 10:40:40 10° ENE visible
22 Jan -0.9 12:12:16 12° WNW 12:14:46 29° N 12:17:37 10° ENE visible
23 Jan -0.7 11:15:34 29° NNE 11:15:34 29° NNE 11:17:55 10° ENE visible
24 Jan -0.9 11:50:58 19° NW 11:52:33 30° N 11:55:26 10° ENE visible
25 Jan 0.2 10:54:05 20° NE 10:54:05 20° NE 10:55:31 10° ENE visible
25 Jan -1.6 12:26:47 10° WNW 12:29:54 50° NNE 12:33:01 10° E visible
26 Jan -1.2 11:29:21 32° NNW 11:30:02 36° NNE 11:33:01 10° E visible
27 Jan 1.1 10:32:22 14° ENE 10:32:22 14° ENE 10:32:56 10° ENE visible
27 Jan -2.1 12:04:34 15° WNW 12:07:09 81° NNE 12:10:19 10° ESE visible
28 Jan -1.4 11:07:34 47° NE 11:07:34 47° NE 11:10:18 10° E visible
29 Jan -1.9 11:42:44 29° W 11:44:04 56° SSW 11:47:11 10° SE visible
30 Jan 0.1 10:45:43 26° ESE 10:45:43 26° ESE 10:47:14 10° ESE visible
30 Jan 0.0 12:18:33 10° WSW 12:20:36 16° SW 12:22:39 10° S visible
31 Jan -0.9 11:20:53 29° SSW 11:20:53 29° SSW 11:23:28 10° SSE visible
